EHI
0 0 0 0 0 0 0 0 0 0 0 0 0 0 0 0 0 0 0 0 0 0 0 0 0 0 0 0 0 0 0 0 0 0 0 0 0 0 0 0 0 0 0
0 0 0 0 0 0 0 0 0 0 0 0 0 0 0 0 0 0 0 0 0 0 0 0 0 0 0 0 0 0 0 0 0 0 0 0 0 0 0 0 0 0 0
0 0 0 0 0 0 0 0 0 0 0 0 0 0 0 0 0 0 0 0 0 0 0 0 0 0 0 0 0 0 0 0 0 0 0 0 0 0 0 0 0 0 0
0 0 0 0 0 0 0 0 0 0 0 0 0 0 0 0 0 0 0 0 0 0 0 0 0 0 0 0 0 0 0 0 0 0 0 0 0 0 0 0 0 0 0
0 0 0 0 0 0 0 0 0 0 0 0 0 0 0 0 0 0 0 0 0 0 0 0 0 0 0 0 0 0 0 0 0 0 0 0 0 0 0 0 0 0 0
0 0 0 0 0 0 0 0 0 0 0 0 0 0 0 0 0 0 0 0 0 0 0 0 0 0 0 0 0 0 0 0 0 0 0 0 0 0 0 0 0 0 0
0 0 0 0 0 0 0 0 0 0 0 0 0 0 0 0 0 0 0 0 0 0 0 0 0 0 0 0 0 0 0 0 0 0 0 0 0 0 0 0 0 0 0
0 0 0 0 0 0 0 0 0 0 0 0 0 0 0 0 0 0 0 0 0 0 0 0 0 0 0 0 0 0 0 0 0 0 0 0 0 0 0 0 0 0 0
0 0 0 0 0 0 0 0 0 0 0 0 0 0 0 0 0 0 0 0 0 0 0 0 0 0 0 0 0 0 0 0 0 0 0 0 0 0 0 0 0 0 0
0 0 0 0 0 0 0 0 0 0 0 0 0 0 0 0 0 0 0 0 0 0 0 0 0 0 0 0 0 0 0 0 0 0 0 0 0 0 0 0 0 0 0
0 0 0 0 0 0 0 0 0 0 0 0 0 0 0 0 0 0 0 0 0 0 0 0 0 0 0 0 0 0 0 0 0 0 0 0 0 0 0 0 0 0 0
0 0 0 0 0 0 0 0 0 0 0 0 0 0 0 0 0 0 0 0 0 0 0 0 0 0 0 0 0 0 0 0 0 0 0 0 0 0 0 0 0 0 0
0 0 0 0 0 0 0 0 0 0 0 0 0 0 0 0 0 0 0 0 0 0 0 0 0 0 0 0 0 0 0 0 0 0 0 0 0 0 0 0 0 0 0
0 0 0 0 0 0 0 0 0 0 0 0 0 0 0 0 0 0 0 0 0 0 0 0 0 0 0 0 0 0 0 0 0 0 0 0 0 0 0 0 0 0 0
0 0 0 0 0 0 0 0 0 0 0 0 0 0 0 0 0 0 0 0 0 0 0 0 0 0 0 0 0 0 0 0 0 0 0 0 0 0 0 0 0 0 0
0 0 0 0 0 0 0 0 0 0 0 0 0 0 0 0 0 0 0 0 0 0 0 0 0 0 0 0 0 0 0 0 0 0 0 0 0 0 0 0 0 0 0
0 0 0 0 0 0 0 0 0 0 0 0 0 0 0 0 0 0 0 0 0 0 0 0 0 0 0 0 0 0 0 0 0 0 0 0 0 0 0 0 0 0 0
0 0 0 0 0 0 0 0 0 0 0 0 0 0 0 0 0 0 0 0 0 0 0 0 0 0 0 0 0 0 0 0 0 0 0 0 0 0 0 0 0 0 0
0 0 0 0 0 0 0 0 0 0 0 0 0 0 0 0 0 0 0 0 0 0 0 0 0 0 0 0 0 0 0 0 0 0 0 0 0 0 0 0 0 0 0
0 0 0 0 0 0 0 0 0 0 0 0 0 0 0 0 0 0 0 0 0 0 0 0 0 0 0 0 0 0 0 0 0 0 0 0 0 0 0 0 0 0 0
0 0 0 0 0 0 0 0 0 0 0 0 0 0 0 0 0 0 0 0 0 0 0 0 0 0 0 0 0 0 0 0 0 0 0 0 0 0 0 0 0 0 0
0 0 0 0 0 0 0 0 0 0 0 0 0 0 0 0 0 0 0 0 0 0 0 0 0 0 0 0 0 0 0 0 0 0 0 0 0 0 0 0 0 0 0
0 0 0 0 0 0 0 0 0 0 0 0 0 0 0 0 0 0 0 0 0 0 0 0 0 0 0 0 0 0 0 0 0 0 0 0 0 0 0 0 0 0 0
0 0 0 0 0 0 0 0 0 0 0 0 0 0 0 0 0 0 0 0 0 0 0 0 0 0 0 0 0 0 0 0 0 0 0 0 0 0 0 0 0 0 0
0 0 0 0 0 0 0 0 0 0 0 0 0 0 0 0 0 0 0 0 0 0 0 0 0 0 0 0 0 0 0 0 0 0 0 0 0 0 0 0 0 0 0
0 0 0 0 0 0 0 0 0 0 0 0 0 0 0 0 0 0 0 0 0 0 0 0 0 0 0 0 0 0 0 0 0 0 0 0 0 0 0 0 0 0 0
Wind_Speed
6 5 4 3 3 2 3 2 2 2 2 2 3 4 3 3 3 2 1 3 4 3 3 3 4 4 4 4 5 5 6 7 7 8 8 9 9 10 10 11 11 12 12
6 6 5 4 4 3 3 3 3 3 2 2 3 3 3 2 2 2 1 1 2 2 2 2 2 2 2 3 3 4 5 6 7 7 8 9 9 9 10 11 11 11 12
8 7 6 5 4 4 4 3 3 2 2 2 2 2 2 2 2 2 2 1 0 1 1 1 0 1 1 2 3 4 4 5 6 7 8 8 9 10 10 11 11 12 12
9 7 6 5 5 4 4 3 3 3 2 2 1 1 1 1 2 2 2 2 1 1 2 2 2 2 3 3 4 4 5 6 6 7 8 9 10 10 11 11 12 12 13
10 8 6 5 6 4 4 4 3 3 3 2 1 1 1 1 2 2 2 2 2 2 2 3 3 4 4 5 5 6 6 7 7 8 9 10 10 11 12 12 13 13 13
10 8 6 7 7 5 4 4 4 3 2 3 1 0 1 1 1 2 3 2 2 3 2 2 2 3 5 6 7 7 8 8 9 9 10 11 12 12 13 13 14 14 15
11 9 7 7 7 6 6 6 4 3 2 2 2 1 3 2 1 2 2 2 2 2 2 3 2 2 3 7 8 9 9 10 10 11 11 12 13 13 14 14 15 16 16
12 10 9 8 7 6 6 6 4 3 2 3 3 2 2 4 3 1 1 2 2 2 2 3 3 3 3 2 5 9 10 11 12 12 13 13 14 15 15 16 16 17 17
12 10 10 9 8 7 7 7 6 6 4 2 2 4 3 3 3 3 2 2 2 2 3 2 3 3 3 3 3 7 10 11 12 13 14 14 15 16 17 17 18 18 18
12 11 11 10 9 7 7 7 6 5 6 4 2 2 2 3 2 2 3 2 2 3 3 3 3 3 3 3 5 8 10 11 13 14 15 15 16 17 18 19 19 20 20
11 12 11 10 10 8 8 8 7 6 5 5 4 3 2 1 2 2 3 3 3 3 3 3 3 3 3 2 3 5 9 11 12 14 15 16 17 18 19 20 20 21 21
9 12 11 11 10 9 9 8 8 8 6 5 4 3 3 3 3 3 3 3 3 3 2 2 2 2 2 2 3 6 9 10 12 14 14 15 16 18 19 20 21 21 21
9 13 11 11 10 9 9 8 7 7 7 6 5 4 3 3 3 3 3 2 3 3 3 2 2 1 1 1 2 6 8 10 12 13 14 15 16 17 19 19 20 20 20
10 11 11 10 10 9 9 8 6 7 6 6 6 5 3 3 3 3 3 2 1 2 2 4 1 1 1 1 3 5 5 11 12 13 14 15 16 17 18 18 19 19 20
8 10 11 10 9 9 9 9 6 7 6 6 5 5 4 3 2 2 2 3 3 2 3 3 2 2 1 1 4 2 3 10 12 14 14 15 16 16 17 17 18 19 19
10 10 11 10 10 9 9 9 6 6 7 6 4 5 4 2 2 2 2 2 2 3 3 3 2 2 2 2 4 3 4 10 12 14 14 15 15 16 17 17 18 18 18
11 12 12 11 10 10 9 9 8 8 8 6 5 5 5 3 3 2 2 2 2 2 3 3 1 1 1 2 3 3 3 3 5 12 14 15 15 16 17 17 17 18 17
12 12 11 11 10 10 10 10 9 8 8 8 7 6 5 3 3 2 2 2 2 2 2 3 2 1 2 2 3 3 4 4 4 10 13 14 15 16 17 17 17 17 17
11 11 11 11 11 10 10 9 9 9 8 7 7 7 5 5 4 3 3 2 2 1 1 1 2 1 1 2 3 3 4 4 5 7 11 12 14 16 17 17 17 16 16
12 12 11 11 10 10 9 9 8 8 7 6 6 5 5 5 5 4 3 3 2 2 1 0 1 1 2 2 2 3 4 3 5 4 7 10 13 15 16 17 16 16 16
11 11 10 10 9 8 8 9 9 8 8 6 5 5 4 5 5 4 3 3 3 2 1 1 1 1 2 2 2 2 3 4 4 3 5 5 6 5 7 12 14 15 15
11 11 11 11 10 7 12 15 11 8 8 7 6 5 4 5 5 5 5 5 5 3 2 1 1 1 2 2 2 2 2 3 4 3 3 5 3 5 5 5 11 15 16
11 11 10 10 10 10 16 17 15 9 8 7 7 6 4 4 5 4 5 5 4 4 3 3 1 2 2 2 1 2 2 2 4 4 3 4 3 4 5 7 14 15 16
11 10 10 10 9 11 17 17 16 9 7 6 6 6 6 5 5 6 5 4 3 2 3 2 1 1 1 0 0 1 2 3 4 3 2 3 3 5 6 5 11 15 17
10 9 10 11 10 11 16 18 15 8 7 6 5 6 6 5 8 9 6 5 3 2 4 5 5 4 5 5 4 2 3 3 4 3 1 2 4 5 5 4 7 15 17
10 10 9 9 10 10 15 18 16 8 8 6 5 5 7 7 9 9 6 5 4 2 2 3 4 4 4 5 6 2 1 1 2 3 2 3 3 4 6 4 4 6 7
Wind_Direction
161 161 161 159 163 159 158 155 159 159 149 136 126 129 132 133 140 139 118 118 112 109 98 91 80 67 61 54 48 37 26 19 15 13 8 4 1 359 356 354 351 350 348
166 166 166 169 176 175 170 164 165 159 153 135 125 128 136 144 147 152 153 133 136 134 120 102 75 45 41 36 28 20 10 5 2 359 357 354 352 350 347 346 344 344 340
170 169 169 175 182 174 163 150 145 135 132 121 116 128 141 159 164 167 168 168 222 196 198 196 253 328 331 338 346 352 349 346 346 344 343 343 341 339 337 337 336 335 333
172 167 170 180 177 162 154 149 144 130 127 125 132 149 156 171 184 188 182 187 198 243 248 245 255 279 292 301 315 321 324 327 329 329 330 330 329 328 328 329 327 326 325
175 169 173 177 169 157 157 159 147 140 143 149 159 167 201 200 204 193 197 202 205 210 230 256 256 267 281 288 295 300 306 311 314 317 319 320 319 319 320 320 320 320 319
176 171 170 173 165 159 161 157 149 139 146 155 133 59 295 264 227 213 216 212 212 214 213 233 262 274 270 278 286 293 298 303 306 308 311 313 313 313 313 315 315 315 314
177 175 173 171 170 170 170 161 147 146 148 134 95 9 335 328 267 239 226 218 228 227 218 224 233 245 275 276 281 287 294 299 302 304 307 309 310 311 311 311 310 310 310
180 181 175 176 174 167 166 167 152 147 161 155 136 115 331 327 313 278 245 228 235 238 238 233 233 236 244 261 277 282 289 296 301 304 307 309 309 309 309 308 307 307 308
183 183 179 176 177 174 178 179 169 161 170 191 165 150 163 228 285 305 270 249 241 239 249 246 240 239 239 241 262 276 282 292 299 304 307 309 309 309 309 309 309 309 309
185 184 180 179 179 180 180 183 178 168 160 179 198 193 174 165 174 286 305 287 262 248 249 251 250 249 246 244 256 269 280 289 297 303 306 309 310 310 310 310 310 310 311
188 186 183 183 183 185 185 183 178 178 173 174 177 170 169 163 168 179 262 291 296 264 246 245 248 254 255 251 257 275 285 293 299 304 308 309 309 310 310 311 311 311 311
190 191 187 187 188 187 187 186 183 182 184 179 178 173 169 175 191 183 219 250 269 280 268 249 243 248 256 259 272 290 294 298 302 306 308 309 309 310 311 312 312 312 312
192 194 190 189 189 189 186 180 181 187 185 185 190 194 192 197 173 171 186 229 253 280 299 287 251 253 276 270 284 306 303 305 307 310 310 310 310 311 312 313 313 314 315
195 188 189 190 189 185 183 181 183 188 185 192 196 195 197 206 182 176 176 175 244 286 289 279 307 293 300 287 302 318 311 311 312 313 312 313 313 314 313 314 316 317 317
184 182 186 187 185 183 183 180 188 189 185 192 197 198 202 203 189 190 174 166 172 238 268 274 292 322 316 308 324 328 309 312 318 317 316 317 317 317 318 319 318 317 317
181 180 185 185 183 183 182 182 184 184 185 193 190 193 201 195 181 176 174 172 172 189 242 262 255 302 328 339 341 336 313 326 324 321 320 322 324 324 323 322 321 319 318
183 184 185 185 184 184 182 184 187 179 186 190 186 187 196 181 173 178 166 163 175 171 230 274 276 315 335 330 335 333 326 324 324 325 325 325 327 328 327 326 324 322 323
184 183 180 182 184 184 184 186 185 182 186 189 186 182 191 171 172 170 163 173 180 178 194 257 285 312 316 329 328 325 334 336 319 322 329 330 332 330 329 327 325 323 324
177 177 177 181 183 182 183 185 182 181 183 184 180 180 180 165 178 174 170 179 177 155 159 203 270 312 315 333 332 326 329 323 322 324 332 334 333 331 330 328 326 325 326
174 176 177 179 179 177 177 174 172 170 169 167 165 167 167 171 180 177 175 178 156 140 129 173 276 305 304 321 329 317 321 324 317 321 331 330 328 331 331 329 327 327 327
171 169 169 170 169 170 172 166 163 160 157 152 148 150 154 154 159 162 158 161 148 144 136 150 270 311 305 320 316 307 312 317 308 317 325 316 314 313 322 324 326 327 329
163 162 166 167 167 170 165 163 158 155 154 153 150 144 138 141 147 146 140 136 139 145 164 167 220 266 281 283 295 319 316 330 312 313 314 300 306 308 312 308 325 335 337
157 159 161 162 163 163 159 158 154 150 151 153 151 147 137 137 131 123 116 102 93 95 118 147 184 242 266 270 293 306 295 290 278 294 314 293 302 305 313 318 329 337 339
157 156 156 156 152 156 154 152 147 140 136 141 145 148 145 143 142 133 119 103 83 66 73 96 146 214 289 280 192 286 280 297 288 292 321 294 305 309 313 307 322 338 342
148 148 150 150 148 151 153 149 143 135 131 131 133 138 141 143 144 134 125 120 97 58 58 67 62 49 32 22 32 33 360 352 323 309 338 311 306 312 301 297 318 334 339
142 140 140 147 148 150 154 150 143 137 134 132 125 132 140 142 141 138 136 136 131 115 77 55 43 33 23 11 21 36 353 334 318 306 318 322 308 327 315 298 301 312 321